Temperature
24 23 23 23 21 20 22 23 24 23 23 24 23 23 21 20 20 20 19 20 20 19 19 19 19 19 19 19 19 19 19 19 19 19 19 19 18 18 18 18 18 18 18 18 18 18 18 18 18
24 24 23 23 20 21 22 23 23 23 23 24 23 22 20 18 18 19 19 19 20 20 19 19 19 19 19 19 19 19 19 19 19 19 18 18 18 18 18 18 18 18 18 18 18 18 18 18 18
24 24 23 20 21 21 23 24 24 24 24 24 23 21 20 18 19 19 20 20 19 20 19 19 19 19 19 19 19 19 19 19 19 18 18 18 18 18 18 18 18 18 18 18 18 18 18 18 18
24 24 23 21 23 23 24 24 24 24 24 23 22 21 20 19 20 20 20 20 20 20 20 20 19 19 19 19 19 19 19 19 19 18 18 18 18 18 18 18 18 18 18 18 18 18 18 18 17
24 24 21 21 23 24 24 24 24 24 24 23 21 20 19 19 20 21 20 20 20 20 20 19 19 19 19 19 19 19 19 19 19 18 18 18 18 18 18 18 18 18 18 18 18 18 17 17 17
25 21 21 22 23 24 24 25 25 24 23 22 21 19 18 19 20 20 20 20 20 20 20 19 19 19 19 19 19 19 19 19 18 18 18 18 18 18 18 18 18 18 18 18 18 17 17 17 17
23 20 22 23 23 24 25 25 24 23 23 22 21 18 18 18 20 20 20 20 20 20 20 20 19 19 19 19 19 19 19 18 18 18 18 18 18 18 18 18 18 18 18 18 17 17 17 17 17
24 20 22 22 24 24 25 25 25 24 23 23 22 19 18 19 20 20 20 19 20 20 20 19 19 19 19 19 19 19 19 18 18 18 18 18 18 18 18 18 18 18 18 17 17 17 17 17 17
24 20 21 23 24 24 25 25 25 24 23 23 22 22 21 20 20 20 19 19 19 19 19 19 19 19 19 19 19 19 18 18 18 18 18 18 18 18 18 18 18 18 17 17 17 17 17 17 17
23 21 23 23 24 24 25 25 24 24 23 22 22 22 21 20 19 19 19 19 19 19 19 19 19 19 19 19 19 19 18 18 18 18 18 18 18 18 18 18 18 18 17 17 17 17 17 17 17
23 22 23 24 25 25 25 25 25 23 22 22 22 21 20 20 19 20 20 20 20 20 20 20 19 19 19 19 19 19 19 18 18 18 18 18 18 18 18 18 18 18 17 17 17 17 17 17 17
23 23 24 25 26 25 25 25 24 24 25 25 25 23 21 20 20 21 21 21 21 20 20 20 20 19 19 19 19 19 19 19 18 18 18 18 18 18 18 18 18 18 18 17 17 17 17 17 17
24 24 25 26 26 26 25 25 25 25 25 25 24 22 21 21 21 21 21 21 21 21 20 20 20 20 19 19 19 19 19 19 18 18 18 18 18 18 18 18 18 18 18 18 17 17 17 17 17
24 25 25 25 26 26 25 25 24 24 25 24 22 21 21 21 21 21 21 21 21 21 21 20 20 20 20 19 19 19 19 19 19 18 18 18 18 18 18 18 18 18 18 18 17 17 17 17 17
24 24 24 24 25 25 25 24 23 24 24 23 21 21 21 21 21 21 22 21 21 21 21 21 20 20 20 19 19 19 19 19 19 18 18 18 18 18 18 18 18 18 18 18 17 17 17 17 17
23 23 23 24 24 25 25 24 23 24 23 22 21 20 20 21 21 22 22 22 21 21 21 21 20 20 20 19 19 19 19 18 18 18 18 18 18 18 18 18 18 18 18 17 17 17 17 17 17
21 22 23 24 24 24 24 24 23 23 23 21 21 21 20 20 21 21 22 22 21 21 21 20 20 20 20 19 19 19 19 18 18 18 18 18 18 18 18 18 18 17 17 17 17 17 17 17 17
21 22 23 23 24 24 23 23 22 23 22 22 21 21 21 21 22 22 22 22 21 21 21 21 20 20 20 19 19 19 18 18 18 18 18 18 18 18 18 18 17 17 17 17 17 17 17 17 17
22 22 22 23 23 23 23 22 22 22 22 22 21 21 21 22 22 21 21 21 21 21 21 20 20 20 20 19 19 19 19 19 18 18 18 18 18 18 18 18 17 17 17 17 17 17 17 17 17
22 22 22 22 23 24 23 22 22 21 22 22 22 22 22 22 22 21 21 21 21 21 21 21 20 20 20 20 19 19 19 19 19 18 18 18 18 18 18 18 17 17 17 17 17 17 17 17 17
22 21 22 22 22 22 23 22 22 22 22 22 22 22 23 22 22 22 22 22 22 22 21 21 21 20 20 20 19 19 18 18 18 18 18 18 18 18 18 18 17 17 17 17 17 17 17 17 17
21 22 22 23 22 20 22 21 21 21 21 21 22 22 22 23 23 22 22 22 22 22 22 21 21 20 20 19 19 19 19 19 19 19 18 18 18 18 18 18 17 17 17 17 17 17 17 17 17
21 22 22 22 21 20 21 21 20 20 21 21 21 22 23 23 23 23 23 23 23 22 22 21 21 20 20 19 19 19 19 19 19 19 18 18 18 18 18 18 17 17 17 17 17 17 17 17 17
22 21 19 17 18 20 20 20 20 19 20 21 21 22 23 23 23 23 23 22 22 22 22 21 21 20 20 19 19 19 19 19 19 19 18 18 18 18 18 18 17 17 17 17 17 17 17 17 17
21 19 18 19 18 18 19 20 19 20 20 21 21 22 23 23 23 23 22 22 22 21 21 21 21 20 20 20 19 19 19 19 19 19 19 18 18 18 18 18 18 18 18 17 17 17 17 17 17
19 19 18 19 19 18 19 19 20 20 20 21 22 23 23 23 23 23 23 22 22 22 21 21 21 20 20 20 19 19 19 19 19 18 18 18 18 18 18 18 18 17 17 17 17 17 17 17 17
19 18 19 17 18 19 19 19 20 20 20 20 21 22 22 23 23 23 23 22 22 21 21 21 21 20 20 20 19 19 19 18 18 18 18 18 18 18 18 18 17 17 17 17 17 17 17 17 17
20 17 16 17 18 19 21 20 20 21 20 20 19 20 21 22 22 22 22 22 22 22 21 21 21 20 20 20 19 19 19 18 18 18 18 18 18 17 17 17 17 17 17 17 17 17 17 17 17
19 19 16 15 17 18 19 20 20 20 20 19 19 20 21 22 22 22 22 22 21 21 21 20 20 20 20 20 19 19 19 18 18 18 18 18 17 17 17 17 17 17 17 17 17 17 16 16 16
20 18 17 18 18 16 18 19 20 19 19 19 20 20 21 21 22 22 22 22 21 21 20 20 20 20 20 20 19 19 19 18 18 18 17 17 17 17 17 17 17 17 17 17 17 16 16 16 16
Wind_Speed
2 1 2 2 5 6 4 4 1 2 3 3 5 6 8 4 2 4 5 10 13 11 13 16 16 16 16 16 18 18 18 18 18 18 18 18 18 18 18 18 18 18 18 18 18 19 19 19 19
1 2 1 4 6 4 4 3 2 2 5 6 6 6 7 5 5 8 7 10 13 12 13 15 16 16 16 16 17 17 18 18 18 17 17 18 17 17 17 17 18 18 18 18 18 18 18 18 18
1 1 3 5 5 3 1 1 3 4 4 4 5 6 5 5 7 6 8 14 12 10 13 15 17 17 16 16 16 17 17 17 17 17 17 17 17 17 17 17 17 17 17 17 18 18 17 17 16
2 4 5 6 3 2 3 3 4 4 4 6 5 6 5 5 5 7 14 15 13 9 12 16 17 17 16 16 16 16 16 16 16 16 16 16 16 16 16 16 16 16 16 16 16 16 16 15 15
4 5 6 4 2 2 1 3 3 3 3 4 5 5 4 4 11 15 15 14 12 9 11 15 17 17 16 16 15 15 15 15 15 15 15 15 15 15 15 15 15 15 15 15 16 15 14 14 15
4 5 5 2 3 2 1 2 4 5 4 5 5 5 3 6 13 15 13 12 10 10 10 14 17 16 16 15 15 15 15 15 14 14 14 14 14 14 14 14 14 14 14 14 14 14 13 13 14
4 5 3 1 1 2 0 2 4 4 5 4 5 6 5 8 10 13 11 10 8 8 9 10 14 15 15 15 14 14 14 14 14 14 14 14 14 13 13 13 13 13 13 13 13 13 12 12 13
5 5 3 0 1 1 1 2 3 5 4 5 5 8 8 10 13 12 11 9 8 7 6 7 10 11 12 13 14 14 13 13 13 13 13 13 13 13 12 12 12 12 12 12 12 11 11 11 12
4 5 1 2 2 2 2 3 2 4 6 3 3 5 8 19 17 15 13 9 9 8 6 6 7 9 10 11 12 13 13 12 12 12 12 11 10 10 10 10 11 11 11 11 11 10 10 10 10
5 3 5 5 4 3 3 4 5 5 5 3 5 9 18 20 18 18 17 16 14 12 9 6 7 8 9 10 10 9 9 10 9 9 10 10 9 8 8 9 10 10 10 9 9 9 9 9 8
4 6 4 4 4 3 3 3 4 8 6 8 12 20 23 21 18 17 16 15 14 12 11 8 7 8 7 6 8 7 8 8 9 9 10 10 8 6 6 6 6 6 7 7 7 7 7 7 7
3 4 4 3 3 3 5 5 4 7 7 8 17 24 24 23 20 19 17 14 12 12 11 9 8 7 7 7 7 7 6 7 7 8 10 9 6 4 4 4 4 5 5 5 5 5 5 5 5
3 3 3 4 3 5 5 6 5 5 3 13 19 21 21 21 18 14 13 12 12 13 12 11 9 8 7 6 6 7 6 6 7 8 8 8 6 4 4 3 3 3 4 4 3 3 3 3 4
2 3 4 3 2 3 4 3 3 3 11 16 20 20 19 19 17 14 13 13 14 14 12 11 11 9 8 6 5 6 7 8 8 7 8 9 7 5 4 3 3 2 3 3 3 2 2 2 3
1 2 5 2 1 1 5 1 4 5 13 16 18 18 17 15 15 16 16 14 14 14 12 12 11 9 8 7 7 7 7 8 7 7 9 9 8 7 6 3 3 3 3 3 2 3 3 2 2
3 4 2 4 2 1 6 5 5 8 14 15 15 16 16 14 15 14 13 12 12 12 12 12 13 11 9 8 7 6 7 8 8 8 9 10 10 9 7 4 3 4 4 3 2 2 2 1 1
5 1 1 4 2 2 3 5 4 8 13 14 15 15 15 13 13 13 13 13 13 13 13 12 11 12 11 8 7 7 7 8 8 9 9 10 11 11 8 6 5 5 4 3 2 2 2 2 2
4 3 1 3 2 1 2 5 4 8 12 13 13 13 14 16 17 14 14 14 13 12 12 12 11 10 10 7 5 4 5 5 7 8 10 11 11 11 10 7 6 6 4 3 2 2 1 1 2
5 3 1 3 2 1 4 6 6 8 9 10 11 13 15 16 12 11 13 14 13 12 12 13 12 11 10 7 7 6 6 5 5 7 10 12 12 12 10 6 6 6 5 5 4 2 2 1 1
3 1 2 3 2 1 3 5 4 7 11 12 15 16 16 12 11 13 13 14 15 15 15 13 13 12 12 10 7 4 4 4 5 5 8 11 12 12 11 8 6 6 5 5 5 4 2 2 3
4 5 4 2 5 4 2 5 2 3 4 6 8 11 11 14 14 15 15 16 15 16 16 15 13 12 11 10 6 4 3 2 3 4 5 8 12 12 11 10 8 7 6 6 7 6 5 3 2
5 6 6 3 1 3 2 2 6 3 4 7 9 10 11 11 12 12 14 15 16 16 13 12 12 12 11 11 10 9 7 7 7 5 6 6 9 10 11 11 10 8 6 6 7 6 5 5 4
7 4 4 2 3 0 1 2 8 2 5 10 10 11 12 12 13 14 15 15 14 13 12 12 11 11 10 11 11 10 8 6 4 4 6 6 6 9 10 11 9 8 7 7 7 6 6 5 5
5 6 7 6 5 1 4 5 7 5 9 8 9 10 11 11 12 11 10 9 9 9 10 11 11 11 11 11 11 11 10 8 6 6 7 6 5 6 8 9 9 8 7 7 7 7 7 6 5
6 6 4 3 2 6 3 4 9 8 8 10 10 10 9 10 10 10 11 10 10 11 11 11 12 11 11 11 11 11 10 10 10 9 8 7 6 5 8 8 7 7 8 8 7 6 7 7 6
8 10 8 6 6 4 1 6 8 6 6 6 6 5 5 7 9 10 11 12 12 12 11 11 11 11 11 11 11 9 9 8 7 8 7 7 7 7 7 8 8 8 9 8 7 6 7 6 7
8 6 8 7 3 1 5 7 8 3 4 2 2 3 5 7 9 9 9 10 10 10 10 11 11 10 10 10 9 8 8 8 8 7 7 6 6 6 7 8 8 8 8 8 7 6 7 6 7
8 10 7 7 6 3 4 5 5 6 5 3 2 4 5 5 7 8 8 9 8 8 8 7 8 9 9 9 9 8 8 8 7 6 7 7 7 6 6 7 7 7 7 7 6 6 6 6 6
6 6 6 6 6 7 3 7 7 7 6 6 5 4 6 7 7 7 7 6 6 7 7 8 7 7 7 7 7 8 8 7 7 7 7 7 6 6 7 7 7 7 6 6 6 7 6 7 6
7 9 9 7 4 5 5 8 6 5 5 5 4 3 4 5 6 6 6 5 6 7 7 7 7 7 6 6 6 7 6 6 6 6 6 6 6 5 6 6 6 6 6 6 7 7 6 6 7
Wind_Direction
248 192 150 102 59 50 35 344 54 78 67 75 105 100 104 88 126 142 128 136 133 136 141 137 131 125 121 119 118 116 116 116 115 116 116 116 117 116 115 113 111 110 109 108 108 108 108 107 107
170 174 101 61 73 58 349 326 56 83 125 114 90 82 79 72 75 107 127 139 135 136 136 137 134 129 125 123 120 117 116 116 116 116 117 117 117 116 116 114 113 111 111 110 110 109 109 109 109
237 169 76 65 82 138 209 297 104 95 99 89 82 69 76 106 119 125 143 138 130 130 135 141 136 132 128 125 122 120 119 118 117 118 118 118 118 117 117 116 115 114 113 113 112 111 111 111 112
82 46 52 64 71 210 191 183 132 110 66 57 91 76 69 95 127 133 137 138 131 128 138 144 139 135 131 128 126 124 122 121 120 120 120 120 120 120 119 117 117 116 116 115 114 113 113 113 115
60 71 57 41 335 270 202 170 135 105 84 70 87 86 55 40 114 130 138 139 137 133 140 145 142 139 136 133 131 129 126 125 124 123 122 121 121 121 121 119 118 118 117 116 115 114 113 115 118
54 63 73 30 329 327 184 159 122 100 95 93 91 94 67 120 129 139 139 138 139 139 139 147 147 144 142 139 136 133 131 129 128 127 126 124 123 122 122 121 121 120 119 118 117 116 115 118 121
93 84 110 158 323 358 115 112 122 122 111 121 115 102 114 142 141 137 133 132 132 134 135 142 148 148 146 144 141 139 137 135 133 132 130 128 125 124 123 123 123 122 122 121 120 118 115 119 121
114 96 77 43 97 264 166 108 119 124 116 113 118 140 160 162 142 130 128 129 131 130 131 134 139 143 146 148 147 145 143 141 138 136 133 131 129 127 125 124 124 124 124 123 122 119 115 119 122
89 74 117 213 186 237 170 125 112 103 116 122 119 151 151 144 140 138 140 144 152 152 140 136 136 139 142 147 153 151 148 147 143 140 137 129 121 123 125 129 130 128 127 125 123 120 114 114 119
88 125 216 215 196 191 181 159 153 128 139 127 89 107 132 146 151 155 161 166 170 170 165 151 145 144 147 153 149 145 142 141 136 133 127 123 121 125 128 136 134 132 128 125 121 118 110 107 110
139 183 223 235 212 181 170 166 152 142 189 193 161 148 151 157 163 167 172 175 176 173 172 164 156 152 151 143 140 136 134 134 133 133 132 132 125 123 122 118 118 119 116 107 103 99 101 109 116
167 230 222 233 188 170 171 160 167 187 218 173 158 155 159 166 173 177 177 177 172 173 176 168 161 156 156 148 146 141 140 140 141 145 146 141 132 127 125 116 112 108 107 102 96 96 102 113 128
202 254 260 246 235 196 168 178 187 211 142 132 144 156 168 174 178 180 177 173 173 179 178 173 169 167 161 151 157 156 155 156 158 159 162 159 152 150 145 135 131 125 120 118 111 103 100 117 135
242 265 296 287 257 197 165 178 161 198 137 140 155 168 177 180 178 176 176 178 181 183 181 175 176 173 165 165 165 161 167 168 169 176 180 179 175 169 162 154 153 154 148 136 125 113 108 123 144
304 337 341 340 296 195 117 77 215 167 145 155 168 175 181 184 183 186 185 182 183 184 180 179 179 173 174 174 177 173 174 175 179 189 193 192 191 186 178 174 182 190 173 150 122 103 94 109 134
54 52 347 303 345 100 131 224 230 157 156 168 177 181 186 191 192 190 184 181 180 179 179 182 186 180 180 180 178 172 176 183 191 194 195 201 203 197 185 185 199 193 170 155 133 120 105 111 140
36 94 244 302 332 99 142 234 230 169 171 179 184 188 191 193 196 193 187 183 181 181 179 182 185 182 183 180 178 176 178 190 197 196 198 204 206 203 192 194 202 185 166 163 172 148 147 159 171
193 176 220 258 306 71 222 245 239 181 183 188 190 191 194 199 201 191 184 183 181 181 180 183 186 181 176 173 171 175 182 193 197 198 205 204 205 203 196 195 195 180 168 174 170 159 144 159 170
153 148 233 260 274 252 243 255 242 192 187 192 196 198 201 207 194 179 180 181 179 180 183 187 186 181 175 178 184 187 196 195 197 204 207 204 203 201 196 196 188 184 187 190 179 163 164 172 141
151 176 275 303 335 252 265 280 255 196 200 201 200 202 205 198 180 180 180 182 185 187 189 190 191 186 185 189 186 181 172 187 196 200 203 206 205 201 201 194 192 189 184 184 184 171 163 175 163
192 194 213 258 349 12 38 334 310 249 231 222 216 211 208 200 192 186 184 187 187 192 193 195 194 191 189 181 166 149 134 126 178 198 203 207 205 204 201 198 197 193 190 196 196 183 178 186 190
227 216 197 201 56 306 55 276 285 263 252 233 226 214 211 202 194 190 187 188 192 195 189 189 189 188 187 179 178 177 185 194 200 196 200 201 204 206 204 199 199 195 195 199 201 194 189 178 196
203 194 172 170 160 303 357 164 281 298 248 243 231 218 213 201 193 192 193 192 191 188 185 186 184 187 184 184 189 190 197 199 182 178 193 201 204 207 207 202 199 198 201 206 203 192 194 194 196
157 75 57 52 85 205 227 172 267 237 226 241 232 222 211 198 190 189 189 180 179 178 182 183 185 190 186 187 191 195 197 189 179 189 200 205 204 206 209 206 201 203 204 207 208 203 200 204 204
124 100 49 18 30 240 252 190 245 248 239 234 232 221 207 192 180 177 174 176 181 180 183 185 188 192 189 190 195 198 200 194 195 197 201 201 202 208 210 206 202 205 208 206 203 204 207 204 207
167 145 157 178 201 257 277 225 251 261 264 258 237 218 192 179 179 179 178 179 183 184 182 186 191 195 192 195 199 200 200 200 203 201 196 201 207 213 208 206 206 208 208 210 204 209 216 211 214
140 174 159 131 147 140 280 285 299 283 290 283 218 179 184 179 175 173 172 177 180 182 186 188 192 196 196 197 196 197 200 202 205 201 197 204 210 212 208 208 209 210 209 209 203 214 218 216 222
145 144 115 127 144 203 288 280 254 263 258 268 228 191 187 172 165 165 171 179 179 179 177 180 191 196 197 193 195 200 199 202 203 198 201 205 208 208 206 209 210 208 206 205 204 212 214 216 225
116 112 115 120 145 152 212 265 232 230 227 224 225 203 176 168 165 166 173 174 163 161 165 175 189 188 188 192 193 194 194 195 193 199 205 206 205 202 207 208 207 205 206 204 206 216 214 220 228
152 159 146 148 183 166 168 260 272 231 228 218 214 181 151 150 153 159 155 150 158 164 168 177 187 188 188 186 188 195 188 182 189 200 203 201 202 200 203 202 205 208 208 208 211 219 220 221 226
Height
1489 1488 1489 1490 1494 1506 1510 1503 1498 1497 1497 1498 1500 1501 1504 1508 1512 1518 1516 1518 1522 1525 1528 1530 1532 1534 1535 1536 1537 1539 1540 1541 1542 1543 1544 1546 1547 1548 1550 1551 1552 1553 1554 1555 1557 1558 1559 1560 1561
1489 1489 1491 1491 1503 1520 1514 1502 1499 1497 1498 1499 1502 1503 1505 1509 1510 1512 1515 1520 1524 1527 1529 1532 1534 1536 1537 1538 1540 1541 1542 1543 1544 1546 1547 1548 1550 1551 1552 1553 1555 1556 1557 1558 1559 1560 1562 1563 1564
1490 1490 1492 1495 1508 1517 1511 1501 1499 1499 1500 1500 1503 1506 1508 1510 1512 1514 1517 1521 1525 1528 1531 1534 1536 1537 1539 1540 1542 1543 1544 1546 1547 1548 1550 1551 1552 1554 1555 1556 1557 1558 1560 1561 1562 1563 1564 1566 1567
1491 1492 1494 1502 1509 1505 1501 1499 1498 1500 1501 1502 1504 1508 1511 1514 1514 1516 1519 1523 1527 1530 1533 1535 1538 1540 1541 1543 1544 1546 1547 1548 1550 1551 1552 1554 1555 1556 1557 1559 1560 1561 1562 1563 1565 1566 1567 1568 1570
1492 1493 1502 1511 1508 1501 1497 1498 1499 1500 1502 1505 1506 1510 1513 1516 1517 1519 1522 1525 1528 1532 1535 1537 1540 1542 1543 1545 1546 1548 1549 1551 1552 1553 1555 1556 1557 1559 1560 1561 1562 1563 1565 1566 1567 1569 1570 1571 1572
1494 1495 1512 1517 1508 1500 1498 1498 1499 1501 1504 1506 1508 1511 1515 1517 1519 1521 1524 1527 1531 1533 1536 1539 1541 1543 1545 1547 1549 1550 1552 1553 1554 1556 1557 1558 1560 1561 1562 1564 1565 1566 1567 1569 1570 1571 1573 1574 1575
1495 1502 1512 1512 1509 1504 1499 1499 1500 1503 1505 1507 1508 1512 1515 1518 1521 1523 1526 1530 1533 1536 1538 1540 1543 1545 1547 1549 1551 1552 1554 1555 1556 1558 1559 1561 1562 1563 1565 1566 1567 1568 1570 1571 1573 1574 1575 1576 1577
1495 1502 1510 1512 1509 1505 1500 1500 1501 1503 1506 1508 1509 1511 1514 1517 1521 1524 1528 1531 1534 1537 1539 1542 1544 1546 1548 1550 1552 1554 1556 1557 1558 1560 1561 1563 1564 1565 1567 1568 1569 1571 1572 1574 1575 1576 1578 1579 1580
1496 1507 1515 1509 1507 1503 1499 1499 1502 1503 1505 1508 1509 1510 1512 1516 1520 1524 1528 1531 1535 1537 1540 1543 1545 1547 1550 1552 1554 1556 1557 1559 1560 1562 1563 1564 1566 1567 1569 1570 1572 1573 1575 1576 1577 1579 1580 1581 1582
1497 1510 1506 1501 1499 1499 1498 1498 1500 1503 1505 1507 1509 1510 1513 1516 1520 1523 1526 1529 1533 1536 1540 1543 1546 1548 1551 1553 1555 1557 1558 1560 1562 1563 1565 1566 1567 1569 1570 1572 1573 1575 1577 1578 1579 1581 1582 1583 1584
1497 1502 1498 1497 1496 1496 1497 1498 1499 1501 1505 1504 1504 1508 1512 1515 1519 1523 1526 1529 1532 1536 1539 1543 1546 1549 1551 1553 1556 1558 1559 1561 1563 1565 1566 1568 1569 1570 1572 1573 1575 1577 1578 1579 1581 1582 1584 1585 1586
1497 1496 1495 1495 1495 1495 1496 1498 1499 1499 1499 1501 1503 1505 1509 1513 1517 1520 1524 1528 1532 1536 1539 1543 1546 1549 1552 1554 1556 1558 1560 1562 1564 1566 1567 1569 1570 1572 1573 1575 1576 1578 1580 1581 1582 1584 1585 1586 1587
1496 1495 1494 1493 1493 1493 1495 1496 1497 1498 1499 1500 1504 1508 1510 1512 1516 1521 1525 1529 1532 1535 1539 1542 1546 1549 1552 1554 1557 1559 1561 1563 1565 1567 1569 1570 1572 1573 1575 1576 1578 1579 1581 1582 1584 1585 1586 1587 1589
1494 1493 1493 1492 1492 1492 1494 1496 1498 1497 1499 1501 1504 1507 1510 1513 1516 1520 1524 1527 1531 1535 1539 1542 1545 1549 1552 1555 1557 1560 1562 1564 1566 1568 1570 1571 1573 1575 1576 1577 1579 1581 1582 1583 1585 1586 1587 1588 1589
1493 1494 1494 1492 1492 1492 1494 1499 1497 1496 1499 1501 1504 1507 1510 1514 1517 1519 1523 1527 1531 1535 1538 1542 1545 1548 1552 1555 1557 1560 1562 1565 1566 1568 1570 1572 1573 1575 1577 1578 1580 1581 1583 1584 1585 1587 1588 1589 1589
1494 1499 1504 1496 1492 1492 1498 1505 1495 1496 1498 1501 1504 1507 1510 1513 1515 1519 1523 1527 1531 1535 1538 1541 1544 1547 1551 1554 1557 1560 1562 1565 1567 1568 1570 1572 1574 1575 1577 1579 1580 1582 1583 1584 1586 1587 1588 1589 1589
1504 1510 1507 1500 1493 1493 1498 1501 1494 1495 1497 1499 1502 1505 1508 1512 1515 1518 1522 1526 1530 1534 1537 1540 1543 1546 1549 1553 1556 1559 1561 1564 1566 1568 1570 1572 1573 1575 1577 1578 1580 1582 1583 1584 1585 1586 1588 1589 1589
1511 1509 1507 1504 1496 1495 1498 1498 1493 1494 1496 1498 1501 1504 1506 1509 1511 1516 1520 1525 1529 1533 1536 1539 1542 1546 1549 1552 1555 1557 1560 1562 1564 1567 1569 1571 1573 1574 1576 1578 1579 1581 1582 1583 1585 1586 1587 1588 1589
1500 1504 1507 1502 1495 1497 1498 1497 1493 1493 1495 1497 1499 1501 1503 1505 1510 1515 1519 1523 1527 1531 1534 1537 1540 1543 1546 1549 1551 1554 1556 1560 1562 1565 1567 1569 1571 1573 1575 1576 1578 1579 1581 1582 1584 1585 1586 1587 1588
1499 1504 1506 1501 1495 1496 1498 1497 1492 1492 1492 1492 1495 1497 1499 1503 1508 1511 1516 1520 1523 1527 1531 1534 1537 1541 1544 1547 1550 1553 1555 1558 1560 1563 1565 1567 1569 1571 1573 1575 1576 1578 1579 1580 1582 1583 1584 1585 1586
1500 1503 1503 1503 1499 1497 1499 1502 1496 1492 1492 1493 1494 1495 1497 1500 1502 1507 1511 1515 1519 1523 1527 1531 1535 1538 1541 1545 1548 1551 1553 1556 1558 1560 1562 1564 1567 1569 1570 1572 1574 1575 1577 1578 1579 1581 1582 1583 1584
1503 1495 1497 1499 1507 1513 1506 1520 1503 1496 1493 1491 1491 1492 1494 1497 1500 1504 1508 1512 1515 1519 1524 1528 1532 1536 1539 1542 1545 1547 1549 1551 1554 1557 1559 1562 1564 1566 1567 1569 1570 1572 1574 1576 1577 1578 1579 1581 1581
1493 1490 1494 1498 1506 1514 1511 1518 1511 1498 1496 1490 1487 1487 1489 1492 1496 1500 1504 1507 1512 1517 1521 1525 1529 1533 1536 1539 1542 1545 1547 1549 1552 1554 1557 1559 1560 1562 1564 1566 1568 1569 1571 1572 1574 1575 1576 1577 1578
1486 1493 1500 1509 1515 1526 1514 1518 1514 1501 1491 1485 1482 1483 1485 1488 1492 1496 1501 1506 1510 1515 1519 1522 1526 1529 1533 1536 1539 1541 1544 1546 1549 1551 1553 1555 1557 1559 1560 1562 1564 1566 1568 1569 1571 1572 1573 1574 1575
1487 1506 1524 1525 1534 1530 1513 1514 1509 1487 1482 1480 1478 1478 1481 1485 1489 1493 1497 1502 1506 1511 1515 1518 1522 1525 1529 1532 1534 1537 1540 1542 1544 1547 1549 1551 1553 1554 1556 1558 1560 1562 1564 1566 1567 1568 1569 1570 1571
1489 1499 1522 1531 1533 1527 1513 1514 1497 1480 1477 1476 1475 1476 1479 1482 1486 1490 1493 1498 1502 1507 1510 1514 1518 1521 1525 1527 1530 1533 1536 1538 1540 1543 1545 1547 1548 1550 1552 1554 1556 1558 1560 1561 1563 1564 1565 1566 1567
1490 1496 1496 1515 1520 1523 1518 1505 1489 1478 1476 1475 1475 1476 1477 1480 1483 1487 1491 1496 1500 1503 1506 1510 1514 1518 1521 1523 1526 1529 1532 1534 1536 1538 1540 1542 1544 1546 1548 1549 1552 1553 1555 1557 1558 1559 1561 1562 1563
1476 1487 1503 1515 1528 1528 1515 1508 1500 1482 1478 1476 1475 1474 1476 1479 1482 1485 1489 1493 1497 1501 1504 1508 1512 1514 1517 1520 1523 1525 1528 1530 1532 1534 1535 1537 1539 1541 1543 1545 1547 1549 1550 1552 1553 1555 1556 1557 1557
1482 1488 1497 1510 1512 1526 1526 1513 1482 1478 1475 1475 1473 1473 1474 1477 1481 1484 1488 1492 1495 1499 1502 1506 1509 1512 1514 1516 1519 1521 1524 1526 1527 1529 1531 1533 1535 1537 1539 1540 1542 1544 1546 1547 1549 1550 1551 1552 1552
1469 1479 1490 1504 1512 1515 1518 1508 1473 1473 1472 1472 1472 1473 1475 1478 1480 1484 1486 1490 1494 1497 1500 1504 1507 1509 1511 1513 1516 1518 1520 1522 1523 1525 1527 1529 1531 1533 1535 1537 1538 1539 1541 1543 1544 1545 1546 1547 1547